| time (UTC) | temp F | wind direction | speed MPH | gust MPH | rain 1hr in | rain 24hr in | rain mn in | humidity % | barometer mb |
| 20260904010012 | 75 | 212 | 0.0 | 0.0 | 0.00 | 0.00 | 0.00 | 22 | 1002.2 |
| 20260904004512 | 76 | 220 | 0.0 | 0.0 | 0.00 | 0.00 | 0.00 | 21 | 1002.3 |
| 20260904003004 | 76 | 206 | 0.0 | 0.0 | 0.00 | 0.00 | 0.00 | 23 | 1002.4 |
| 20260904001601 | 76 | 178 | 0.0 | 0.0 | 0.00 | 0.00 | 0.00 | 21 | 1002.5 |
| 20260904000138 | 76 | 166 | 0.0 | 0.0 | 0.00 | 0.00 | 0.00 | 20 | 1002.7 |
| 20260903234552 | 76 | 360 | 0.0 | 0.0 | 0.00 | 0.00 | 0.00 | 19 | 1002.8 |
| 20260903233046 | 77 | 157 | 0.0 | 0.0 | 0.00 | 0.00 | 0.00 | 19 | 1002.8 |
| 20260903231542 | 77 | 360 | 0.0 | 0.0 | 0.00 | 0.00 | 0.00 | 19 | 1002.9 |
| 20260903230037 | 76 | 190 | 0.0 | 0.0 | 0.00 | 0.00 | 0.00 | 22 | 1003.0 |
| 20260903224543 | 76 | 174 | 0.0 | 0.0 | 0.00 | 0.00 | 0.00 | 20 | 1003.2 |
| 20260903223030 | 76 | 146 | 0.0 | 0.0 | 0.00 | 0.00 | 0.00 | 21 | 1003.5 |
| 20260903221523 | 76 | 360 | 0.0 | 0.0 | 0.00 | 0.00 | 0.00 | 22 | 1003.6 |
| 20260903220018 | 76 | 196 | 0.0 | 0.0 | 0.00 | 0.00 | 0.00 | 20 | 1003.7 |
| 20260903214520 | 76 | 175 | 0.0 | 0.0 | 0.00 | 0.00 | 0.00 | 22 | 1004.1 |
| 20260903213016 | 76 | 174 | 0.0 | 0.0 | 0.00 | 0.00 | 0.00 | 22 | 1004.3 |
| 20260903211504 | 75 | 164 | 0.0 | 0.0 | 0.00 | 0.00 | 0.00 | 23 | 1004.5 |
| 20260903210103 | 75 | 175 | 0.0 | 0.0 | 0.00 | 0.00 | 0.00 | 22 | 1004.8 |
| 20260903204556 | 75 | 188 | 0.0 | 0.0 | 0.00 | 0.00 | 0.00 | 22 | 1005.1 |
| 20260903203051 | 75 | 360 | 0.0 | 0.0 | 0.00 | 0.00 | 0.00 | 22 | 1005.2 |
| 20260903201548 | 75 | 360 | 0.0 | 0.0 | 0.00 | 0.00 | 0.00 | 21 | 1005.3 |
| 20260903200043 | 74 | 164 | 0.0 | 0.0 | 0.00 | 0.00 | 0.00 | 19 | 1005.4 |
| 20260903194547 | 74 | 173 | 0.0 | 0.0 | 0.00 | 0.00 | 0.00 | 20 | 1005.5 |
| 20260903193033 | 74 | 176 | 0.0 | 0.0 | 0.00 | 0.00 | 0.00 | 20 | 1005.8 |
| 20260903191540 | 74 | 144 | 0.0 | 0.0 | 0.00 | 0.00 | 0.00 | 18 | 1005.8 |
| 20260903190027 | 73 | 205 | 0.0 | 0.0 | 0.00 | 0.00 | 0.00 | 22 | 1006.1 |
| 20260903184523 | 74 | 169 | 0.0 | 0.0 | 0.00 | 0.00 | 0.00 | 19 | 1006.2 |
| 20260903183015 | 73 | 157 | 0.0 | 0.0 | 0.00 | 0.00 | 0.00 | 20 | 1006.6 |
| 20260903181530 | 73 | 178 | 0.0 | 0.0 | 0.00 | 0.00 | 0.00 | 22 | 1006.8 |
| 20260903180006 | 72 | 161 | 0.0 | 0.0 | 0.00 | 0.00 | 0.00 | 22 | 1006.9 |
| 20260903174501 | 72 | 155 | 0.0 | 0.0 | 0.00 | 0.00 | 0.00 | 20 | 1007.0 |
| 20260903173057 | 71 | 140 | 0.0 | 0.0 | 0.00 | 0.00 | 0.00 | 20 | 1006.9 |
| 20260903171555 | 71 | 136 | 0.0 | 0.0 | 0.00 | 0.00 | 0.00 | 22 | 1007.2 |
| 20260903170056 | 70 | 153 | 0.0 | 0.0 | 0.00 | 0.00 | 0.00 | 23 | 1007.1 |
| 20260903164544 | 69 | 156 | 0.0 | 0.0 | 0.00 | 0.00 | 0.00 | 24 | 1007.1 |
| 20260903163056 | 68 | 168 | 0.0 | 0.0 | 0.00 | 0.00 | 0.00 | 25 | 1007.2 |
| 20260903161536 | 65 | 174 | 0.0 | 0.0 | 0.00 | 0.00 | 0.00 | 29 | 1007.3 |
| 20260903160029 | 59 | 275 | 0.0 | 0.0 | 0.00 | 0.00 | 0.00 | 44 | 1007.4 |
| 20260903154526 | 57 | 275 | 0.0 | 0.0 | 0.00 | 0.00 | 0.00 | 43 | 1007.7 |
| 20260903153025 | 55 | 266 | 0.0 | 0.0 | 0.00 | 0.00 | 0.00 | 37 | 1008.0 |
| 20260903151524 | 54 | 265 | 0.0 | 0.0 | 0.00 | 0.00 | 0.00 | 30 | 1008.2 |
| 20260903150032 | 51 | 258 | 0.0 | 0.0 | 0.00 | 0.00 | 0.00 | 33 | 1008.3 |
| 20260903144519 | 49 | 258 | 0.0 | 0.0 | 0.00 | 0.00 | 0.00 | 25 | 1008.4 |
| 20260903143014 | 47 | 258 | 0.0 | 0.0 | 0.00 | 0.00 | 0.00 | 15 | 1008.4 |
| 20260903141510 | 47 | 258 | 0.0 | 0.0 | 0.00 | 0.00 | 0.00 | 15 | 1008.2 |
| 20260903140016 | 44 | 258 | 0.0 | 0.0 | 0.00 | 0.00 | 0.00 | 8 | 1008.1 |
| 20260903134500 | 42 | 258 | 0.0 | 0.0 | 0.00 | 0.00 | 0.00 | 11 | 1007.9 |
| 20260903133059 | 41 | 258 | 0.0 | 0.0 | 0.00 | 0.00 | 0.00 | 16 | 1007.8 |
| 20260903131553 | 42 | 258 | 0.0 | 0.0 | 0.00 | 0.00 | 0.00 | 14 | 1007.6 |
| 20260903130048 | 42 | 258 | 0.0 | 0.0 | 0.00 | 0.00 | 0.00 | 14 | 1007.1 |
| 20260903124548 | 42 | 258 | 0.0 | 0.0 | 0.00 | 0.01 | 0.00 | 18 | 1006.9 |
| 20260903123039 | 42 | 258 | 0.0 | 0.0 | 0.00 | 0.01 | 0.00 | 18 | 1006.9 |
| 20260903121535 | 43 | 258 | 0.0 | 0.0 | 0.00 | 0.01 | 0.00 | 17 | 1006.7 |
| 20260903120037 | 43 | 258 | 0.0 | 0.0 | 0.00 | 0.01 | 0.00 | 20 | 1006.5 |
| 20260903114532 | 43 | 258 | 0.0 | 0.0 | 0.00 | 0.01 | 0.00 | 21 | 1006.3 |
| 20260903113029 | 43 | 258 | 0.0 | 0.0 | 0.00 | 0.01 | 0.00 | 23 | 1006.2 |
| 20260903111524 | 44 | 258 | 0.0 | 0.0 | 0.00 | 0.01 | 0.00 | 28 | 1006.1 |
| 20260903110022 | 45 | 258 | 0.0 | 0.0 | 0.00 | 0.01 | 0.00 | 33 | 1006.0 |
| 20260903104519 | 45 | 258 | 0.0 | 0.0 | 0.00 | 0.01 | 0.00 | 37 | 1005.7 |
| 20260903103015 | 45 | 258 | 0.0 | 0.0 | 0.00 | 0.01 | 0.00 | 45 | 1005.5 |
| 20260903101513 | 45 | 258 | 0.0 | 0.0 | 0.00 | 0.01 | 0.00 | 49 | 1005.3 |
| 20260903100022 | 46 | 258 | 0.0 | 0.0 | 0.00 | 0.01 | 0.00 | 54 | 1005.1 |
| 20260903094507 | 46 | 258 | 0.0 | 0.0 | 0.00 | 0.01 | 0.00 | 54 | 1004.9 |
| 20260903093004 | 47 | 258 | 0.0 | 0.0 | 0.00 | 0.01 | 0.00 | 54 | 1004.8 |
| 20260903091502 | 48 | 263 | 0.0 | 0.0 | 0.00 | 0.01 | 0.00 | 54 | 1004.6 |
| 20260903084558 | 48 | 263 | 0.0 | 0.0 | 0.00 | 0.01 | 0.00 | 55 | 1004.4 |
| 20260903083059 | 49 | 263 | 0.0 | 0.0 | 0.00 | 0.01 | 0.00 | 55 | 1004.4 |
| 20260903081555 | 50 | 263 | 0.0 | 0.0 | 0.00 | 0.01 | 0.00 | 55 | 1004.4 |
| 20260903080050 | 51 | 263 | 0.0 | 0.0 | 0.00 | 0.01 | 0.00 | 55 | 1004.3 |
| 20260903074547 | 52 | 263 | 0.0 | 0.0 | 0.00 | 0.01 | 0.00 | 56 | 1004.0 |
| 20260903073043 | 54 | 263 | 0.0 | 0.0 | 0.00 | 0.01 | 0.00 | 56 | 1003.8 |
| 20260903071554 | 54 | 263 | 0.0 | 0.0 | 0.00 | 0.01 | 0.00 | 56 | 1003.7 |
| 20260903070056 | 54 | 264 | 0.0 | 0.0 | 0.00 | 0.01 | 0.00 | 56 | 1003.7 |
| 20260903064537 | 55 | 264 | 0.0 | 0.0 | 0.00 | 0.01 | 0.00 | 56 | 1003.7 |
| 20260903063036 | 55 | 264 | 0.0 | 0.0 | 0.00 | 0.01 | 0.00 | 54 | 1003.5 |
| 20260903061531 | 56 | 264 | 0.0 | 0.0 | 0.00 | 0.01 | 0.00 | 52 | 1003.4 |
| 20260903060029 | 57 | 264 | 0.0 | 0.0 | 0.00 | 0.01 | 0.00 | 49 | 1003.1 |
| 20260903054535 | 57 | 264 | 0.0 | 0.0 | 0.00 | 0.01 | 0.01 | 48 | 1003.1 |
| 20260903053019 | 57 | 263 | 0.0 | 0.0 | 0.00 | 0.01 | 0.01 | 48 | 1003.0 |
| 20260903051514 | 57 | 263 | 0.0 | 0.0 | 0.00 | 0.01 | 0.01 | 46 | 1003.0 |
| 20260903050010 | 56 | 209 | 0.0 | 0.0 | 0.00 | 0.01 | 0.01 | 47 | 1002.9 |
| 20260903044505 | 57 | 209 | 0.0 | 0.0 | 0.00 | 0.01 | 0.01 | 48 | 1002.8 |
| 20260903043003 | 59 | 209 | 0.0 | 0.0 | 0.00 | 0.01 | 0.01 | 45 | 1002.8 |
| 20260903041608 | 62 | 208 | 0.0 | 0.0 | 0.00 | 0.01 | 0.01 | 34 | 1002.7 |
| 20260903040059 | 63 | 208 | 0.0 | 0.0 | 0.00 | 0.01 | 0.01 | 34 | 1002.6 |
| 20260903034547 | 63 | 209 | 0.0 | 0.0 | 0.00 | 0.01 | 0.01 | 30 | 1002.5 |
| 20260903033043 | 63 | 209 | 0.0 | 0.0 | 0.00 | 0.01 | 0.01 | 30 | 1002.3 |
| 20260903031540 | 63 | 211 | 0.0 | 0.0 | 0.00 | 0.01 | 0.01 | 30 | 1002.2 |
| 20260903030035 | 64 | 211 | 0.0 | 0.0 | 0.00 | 0.01 | 0.01 | 30 | 1002.1 |
| 20260903024530 | 65 | 211 | 0.0 | 0.0 | 0.00 | 0.01 | 0.01 | 29 | 1002.1 |
| 20260903023035 | 65 | 211 | 0.0 | 0.0 | 0.00 | 0.01 | 0.01 | 31 | 1002.0 |
| 20260903021521 | 66 | 211 | 0.0 | 0.0 | 0.00 | 0.01 | 0.01 | 31 | 1002.0 |
| 20260903020017 | 66 | 219 | 0.0 | 0.0 | 0.00 | 0.01 | 0.01 | 30 | 1002.0 |
| 20260903014516 | 67 | 219 | 0.0 | 0.0 | 0.00 | 0.01 | 0.01 | 32 | 1002.1 |
| 20260903013007 | 70 | 220 | 0.0 | 0.0 | 0.00 | 0.01 | 0.01 | 27 | 1002.2 |
| 20260903011504 | 71 | 220 | 0.0 | 0.0 | 0.00 | 0.01 | 0.01 | 27 | 1002.2 |